FENGYUN 1C DEB

Satellite information

Favourite Embed

Satellite Type and Status

DEBRISIN ORBIT

Key statistics

Satellite FENGYUN 1C DEB at a glance.

Uptime

9715

Days in orbit

Revolutions

≈ 14.0

Per day

Orbit

SSO

Sun Synchronous Orbit

Inclination

98.9

Latest

Satellite identification and parameters

Extended collection of information and parameters for FENGYUN 1C DEB.

Object identification

Identified? True

Debris? True

Object name: FENGYUN 1C DEB

International designator: 1999-025CYW

Object number (NORAD): 32353

Object ID (CCSDS): 32353

Country: PEOPLES REPUBLIC OF CHINA (PRC)

Current information (Y/N): Y

RCS size: SMALL

Orbital parameters

Period: 102.581 minutes

Inclination: 98.922 deg

SMA: 7258.934 km

Apoapsis: 972.041 km

Periapsis: 789.557 km

RAAN: 159.8067 deg

Eccentricy: 0.0125696

Argument of periapsis: 208.8783 deg

Mean anomaly: 150.5388 deg

Mean motion: 14.03762056 rev/day

Mean motion (dot): 0.00007257 rev/day2

B* drag term: 0.00432 1/REarth

Two-line elements (TLE)

Creation date: Dec. 9, 2025, 3:26 p.m.

Reference frame: TEME

Reference center: EARTH

Epoch: Dec. 9, 2025, 6:27 a.m. UTC

TLE line 0: 0 FENGYUN 1C DEB

TLE line 1: 1 32353U 99025CYW 25343.26906147 .00007257 00000-0 43200-2 0 9995

TLE line 2: 2 32353 98.9220 159.8067 0125696 208.8783 150.5388 14.03762056631452

Live tracking on map

Real-time ground track for satellite FENGYUN 1C DEB.

In-orbit conjunctions

A list of the most updated potential collisions computed for object FENGYUN 1C DEB.

Target Orbit TCA Probability of collision Miss distance Type
COSMOS 894 DEB LEO 2025-03-08 04:39:30 0.0001351425 60.0 (m) DEBRIS
COSMOS 586 LEO 2024-09-25 03:15:54 0.001775492 45.0 (m) PAYLOAD

Associated space launch

Chinese polar orbiting meteorological satellite

FENGYUN 1C DEB was lifted into orbit during the mission ‘Long March 4B | Feng Yun 1C’, on board a Long March 4B space rocket.

The launch took place on May 10, 1999, 1:33 a.m. from Launch Complex 7.

For more information about the launch, click the button.

Launch to space Long March 4B | Feng Yun 1C
Long March 4B | Feng Yun 1C

Agency: N/A

Status: Launch Successful

Launch date: May 10, 1999, 1:33 a.m. UTC

Rocket: Long March 4B

Launch pad: Launch Complex 7

Location: Taiyuan Satellite Launch Center, People's Republic of China

...

Latest news about this satellite

There are no fresh news available about this satellite. Check back as we update our databases every day.


Newsletter sign-up

Weekly statistics, charts and insights to help you stay on top of the space industry.